Location: Steinbach
(49.5170°N, 96.6830°W)
Time: 00:44:35
(UTC-05:00)

Daily predictions for brighter satellites

Satellite Brightness Start Highest point End
(mag) Time Altitude Azimuth Time Altitude Azimuth Time Altitude Azimuth
Cosmos 1862 Rocket 4.5 00:04:34 39° W 00:05:15 42° WNW 00:09:27 10° N
Helios 1B rocket 4.2 00:01:48 10° N 00:05:20 28° WNW 00:06:53 22° W
SeaSat 1 3.5 00:05:37 33° ENE 00:06:38 36° NE 00:11:09 10° NNW
Meteor 1-5 Rocket 4.3 00:06:14 10° N 00:11:31 55° ENE 00:11:49 54° E
Cosmos 921 Rocket 3.6 00:13:04 50° WNW 00:13:18 50° WNW 00:17:30 10° NNE
Cosmos 1271 Rocket 3.8 00:11:08 10° N 00:14:01 42° NNE 00:14:01 42° NNE
ATLAS 5 CENTAUR R/B 2.6 00:10:58 10° NW 00:16:41 54° SW 00:17:12 53° SW
Cosmos 2100 Rocket 4.0 00:16:44 61° SE 00:17:32 67° E 00:23:52 10° NNE
ALOS 2 3.4 00:19:05 45° NE 00:19:05 45° NE 00:22:50 10° N
Cosmos 1802 Rocket 4.1 00:18:37 53° ESE 00:19:04 54° E 00:25:06 10° NNE
Cosmos 2061 Rocket 4.2 00:19:25 53° ESE 00:20:05 56° E 00:26:22 10° NNE
RESURS DK-1 3.8 00:17:53 10° NW 00:20:42 30° W 00:20:42 30° W
COBE Rocket 4.5 00:25:26 10° NNE 00:29:19 46° ENE 00:29:19 46° ENE
Cosmos 1302 Rocket 4.3 00:37:53 55° ENE 00:37:53 55° ENE 00:42:17 10° NNE
Meteor 2-6 Rocket 4.5 00:37:34 57° WSW 00:38:32 66° WNW 00:44:27 10° N
Mayak 0.0 00:40:20 10° NNE 00:43:03 35° NE 00:43:03 35° NE
Cosmos 1461 4.1 00:40:14 10° NW 00:43:42 40° WNW 00:43:42 40° WNW
CZ-2C R/B 4.4 00:46:04 24° W 00:46:08 25° W 00:50:05 10° NW
Okean 1 Rocket 4.4 00:42:08 10° N 00:45:42 33° NE 00:45:42 33° NE
Gblst 52 Del rocket 4.3 00:48:23 58° E 00:48:23 58° E 00:53:02 10° ENE
CZ-4 R/B 4.0 00:43:28 10° NNE 00:48:03 75° NNW 00:48:03 75° NNW
Cosmos 1300 Rocket 4.3 00:44:26 10° N 00:48:00 49° NNE 00:48:00 49° NNE
Cosmos 2173 Rocket 3.9 00:52:49 66° SW 00:53:40 77° W 01:00:03 10° N
Cosmos 1725 Rocket 4.0 00:55:52 62° ESE 00:56:12 63° E 01:02:20 10° NNE
USA 267 3.3 00:51:15 10° ENE 00:57:47 74° NNW 01:04:19 10° WSW
Cosmos 1943 Rocket 3.5 00:54:38 10° NW 00:58:56 27° W 00:58:56 27° W
Cosmos 1331 Rocket 4.5 00:59:23 51° W 00:59:58 54° WNW 01:05:09 10° NNE
Cosmos 968 Rocket 4.0 00:57:51 10° NNW 01:02:59 52° ENE 01:03:13 51° ENE
Okean 2 Rocket 4.3 01:00:03 10° NNW 01:03:20 36° WNW 01:03:20 36° WNW
CZ-4C R/B 3.4 01:00:46 13° W 01:05:21 42° NNW 01:11:27 10° NE
Cosmos 1656 Rocket 4.0 00:59:49 10° NW 01:05:02 54° W 01:05:02 54° W
Lacrosse 4 Rocket 3.9 01:03:49 10° N 01:07:02 19° NE 01:09:17 14° ENE
Cosmos 2016 Rocket 3.8 01:07:54 74° SW 01:08:26 82° W 01:14:36 10° N
Okean 1-7 4.4 01:09:19 32° WNW 01:09:19 32° WNW 01:12:50 10° N
ADEOS Rocket 3.1 01:11:47 10° NNE 01:18:44 67° ESE 01:19:22 64° SE
USA 32 4.4 01:15:13 10° N 01:20:18 56° ENE 01:20:18 56° ENE
Cosmos 1975 4.2 01:17:56 10° N 01:20:49 37° NNE 01:20:49 37° NNE
Cosmos 1503 Rocket 4.4 01:19:55 10° NNW 01:24:19 54° WNW 01:24:19 54° WNW
Tsikada Rocket 3.9 01:20:10 10° NNW 01:26:22 72° W 01:26:48 69° SW
Cosmos 1674 Rocket 4.3 01:29:52 51° N 01:29:52 51° N 01:33:12 10° N
USA 234 4.2 01:35:28 32° WSW 01:35:28 32° WSW 01:40:01 10° WNW
Cosmos 1980 Rocket 4.3 01:31:28 10° N 01:35:50 23° NE 01:40:13 10° E
H-2A R/B 3.6 01:39:04 29° WNW 01:39:04 29° WNW 01:42:02 10° NNW
Cosmos 1697 Rocket 4.1 01:33:05 10° NNW 01:38:13 33° NE 01:41:19 20° E
COSMOS 2406 3.4 01:39:18 59° E 01:39:18 59° E 01:44:35 10° NE
CZ-2C R/B 4.5 01:37:57 10° N 01:42:00 23° WNW 01:43:58 18° W
SeaSat 1 3.5 01:45:23 36° WNW 01:45:23 36° WNW 01:48:49 10° NW
Meteor 1-18 Rocket 4.1 01:46:34 81° ESE 01:46:35 81° E 01:52:18 10° NNE
CZ-4B R/B 4.0 01:42:30 10° N 01:46:52 46° WNW 01:46:52 46° WNW
deb Chang Zheng 4 4.3 01:42:54 10° N 01:46:18 49° NNW 01:46:18 49° NNW
BREEZE-M R/B 4.2 01:47:27 64° SSE 01:47:38 64° SSE 01:53:19 10° ENE
Cosmos 1378 Rocket 4.2 01:49:02 54° N 01:49:02 54° N 01:52:29 10° N
Meteor 1-12 Rocket 4.1 01:46:20 10° N 01:52:03 84° ENE 01:52:15 82° ESE
Cosmos 2082 Rocket 4.0 01:52:26 18° ESE 01:52:36 18° E 01:56:22 10° ENE
Cosmos 909 Rocket 4.3 01:47:41 10° NW 01:54:00 65° NE 01:56:37 36° ESE
Cosmos 1656 4.0 01:54:42 10° NNW 02:00:23 61° ENE 02:01:35 50° ESE
Meteor 2-20 4.3 01:56:21 10° N 02:02:28 87° E 02:03:04 74° SSE
Meteor 1-19 Rocket 4.5 02:02:58 56° ESE 02:03:20 57° E 02:09:02 10° NNE
CZ-4B R/B 3.4 02:08:59 30° NNE 02:08:59 30° NNE 02:11:12 10° N
Cosmos 1992 Rocket 4.2 02:12:50 61° WNW 02:12:56 62° WNW 02:18:09 10° NNE
Cosmos 2233 Rocket 4.2 02:17:08 51° WSW 02:17:54 55° WNW 02:23:57 10° N
Cosmos 1666 4.4 02:15:36 10° NNW 02:17:33 27° NNW 02:17:33 27° NNW
Mayak 0.8 02:16:42 10° NNW 02:19:41 20° WNW 02:19:41 20° WNW
Cosmos 1464 Rocket 3.9 02:19:17 63° SSE 02:20:14 75° E 02:26:33 10° NNE
Cosmos 1833 Rocket 3.6 02:25:13 35° ESE 02:25:39 35° ESE 02:30:44 10° NE
SL-16 R/B 3.6 02:22:56 20° ESE 02:26:55 42° ENE 02:32:46 10° N
MOS 1 Rocket 3.4 02:22:33 10° NNE 02:27:02 69° E 02:27:02 69° E
Cosmos 2369 3.5 02:21:51 10° NNW 02:27:33 86° WSW 02:27:57 78° S
Cosmos 1242 Rocket 4.2 02:24:14 10° NNW 02:26:21 33° NNW 02:26:21 33° NNW
Landsat 5 3.8 02:34:24 69° NNW 02:34:24 69° NNW 02:38:25 10° NNW
Meteor 1-13 Rocket 4.1 02:35:28 72° SSE 02:36:04 83° E 02:41:51 10° NNE
Cosmos 1777 Rocket 4.0 02:30:53 10° NNW 02:35:52 70° W 02:35:52 70° W
Nadezhda 4 Rocket 4.0 02:30:02 10° N 02:36:12 74° E 02:37:47 51° SSE
Gblst 52 Del rocket 4.4 02:35:14 20° W 02:39:10 73° N 02:45:17 10° E
USA 267 4.1 02:34:10 10° ENE 02:40:24 48° N 02:46:36 10° WNW
Cosmos 1513 Rocket 4.3 02:39:53 65° SSW 02:40:53 88° W 02:46:59 10° N
Cosmos 1867 3.4 02:36:27 10° NW 02:41:58 80° SW 02:42:14 77° SSW
Meteor 2-9 Rocket 4.0 02:37:20 10° NNW 02:42:50 68° W 02:42:59 68° WSW
Cosmos 1891 Rocket 4.3 02:44:18 64° SSW 02:45:18 83° W 02:51:24 10° N
Cosmos 1975 Rocket 3.7 02:46:05 46° NW 02:46:05 46° NW 02:49:56 10° N
Cosmos 1455 Rocket 3.6 02:41:38 10° NNW 02:45:06 50° NW 02:45:06 50° NW
Lacrosse 4 Rocket 1.8 02:41:53 10° NW 02:45:34 61° NW 02:45:34 61° NW
SL-27 R/B 3.8 02:57:45 36° N 02:57:45 36° N 02:59:52 10° NNE
Cosmos 1025 Rocket 4.1 02:56:17 33° ESE 02:56:47 34° E 03:00:41 10° NNE
Gbstr 26 Del rocket 4.3 02:54:09 42° WSW 02:57:09 82° SSE 03:04:12 10° ENE
ADEOS Rocket 4.5 02:57:49 10° N 03:03:39 29° NW 03:06:19 22° W
CZ-2D R/B 3.1 03:00:22 10° NNE 03:05:25 39° E 03:07:19 30° SE
Lacrosse 5 rocket 2.0 03:06:16 47° ESE 03:06:16 47° ESE 03:09:39 10° ENE
PSLV R/B 4.3 03:03:05 10° N 03:06:58 41° WNW 03:06:58 41° WNW
Cosmos 2084 Rocket 3.9 03:07:38 49° NW 03:07:53 50° NW 03:11:58 10° NE
Cosmos 2026 Rocket 4.4 03:02:40 10° N 03:09:01 60° ENE 03:12:53 24° SSE
Meteor 2-4 Rocket 3.7 03:10:44 55° WSW 03:11:30 61° WNW 03:16:50 10° N
Meteor 1-23 Rocket 4.2 03:12:31 54° S 03:13:55 89° ESE 03:19:40 10° NNE
Cosmos 1536 Rocket 3.5 03:17:49 68° WNW 03:17:49 68° WNW 03:22:10 10° N
Cosmos 2278 4.2 03:13:56 10° NW 03:18:55 41° W 03:18:55 41° W
UNK 3.7 03:19:15 58° SSE 03:20:09 84° ENE 03:24:48 10° NNW
Cosmos 1980 Rocket 2.1 03:14:57 10° NNW 03:20:37 87° WSW 03:23:20 32° SSE
PSLV R/B 4.3 03:20:15 46° SE 03:21:10 60° ENE 03:25:12 10° N
Okean 2 3.3 03:21:31 70° SE 03:21:44 73° E 03:25:50 10° NNE
ATLAS 3B R/B 4.5 03:17:58 13° SSE 03:22:03 21° ESE 03:27:02 10° ENE
Cosmos 1697 Rocket 2.8 03:16:56 10° NW 03:22:27 53° WSW 03:23:01 51° SW
SL-08 R/B 3.2 03:22:24 56° S 03:23:27 85° WSW 03:28:24 10° NNW
Cosmos 1607 4.0 03:22:12 46° SW 03:24:21 88° NW 03:30:55 10° NE
Exosat Rocket 4.3 03:21:57 10° NW 03:27:38 53° WSW 03:30:11 37° SSW
Cosmos 44 3.9 03:24:35 10° NW 03:29:43 63° NE 03:35:02 10° SE
Cosmos 2195 Rocket 4.4 03:24:22 10° N 03:30:35 87° W 03:33:28 34° S
Cosmos 1544 3.6 03:27:25 10° N 03:31:03 54° ENE 03:31:41 47° ESE
SL-16 R/B 3.1 03:29:25 10° NNW 03:34:57 49° NE 03:40:26 10° SE
Cosmos 2082 Rocket 2.1 03:34:17 47° SW 03:35:59 81° WNW 03:41:41 10° NNE
Resurs 1-4 Rocket 2.2 03:32:32 10° NNE 03:37:49 72° ESE 03:39:50 38° S
AQUA 3.7 03:35:14 10° NNE 03:40:02 87° E 03:41:22 49° SSW
CZ-4B R/B 4.0 03:42:26 12° WNW 03:42:26 12° WNW 03:42:56 10° NW
Cosmos 1356 3.6 03:43:49 62° NW 03:43:49 62° NW 03:47:04 10° N
CBERS-1 3.9 03:39:26 10° NNE 03:44:34 79° WNW 03:46:14 44° SSW
Cosmos 1092 Rocket 4.2 03:38:45 10° NNW 03:44:47 53° W 03:46:56 37° SW
COSMOS 2487 2.5 03:45:12 67° SE 03:45:21 69° ESE 03:48:51 10° NNE
Cosmos 1726 Rocket 3.7 03:44:59 10° N 03:49:19 69° ENE 03:51:30 28° SSE
Cosmos 2322 Rocket 2.8 03:44:12 10° NNW 03:49:48 58° ENE 03:55:20 10° SE
Cosmos 1655 Rocket 4.1 03:44:32 10° N 03:50:57 80° E 03:56:25 15° SSE
IRS-P3 4.1 03:45:44 10° N 03:51:04 71° WNW 03:53:02 39° SW
Cosmos 2142 Rocket 4.4 03:48:58 32° S 03:52:01 88° W 03:58:12 10° N
Cosmos 1898 Rocket 3.4 03:47:05 10° NNW 03:52:18 73° WSW 03:55:21 25° S
Meteor 1-22 Rocket 4.3 03:49:01 10° N 03:55:03 83° ENE 03:59:55 15° SSE
NPP 3.8 03:49:47 10° N 03:55:07 62° WNW 03:57:08 37° SW
H-2A R/B 2.7 03:51:24 10° N 03:55:35 59° WNW 03:56:35 46° WSW
Cosmos 2208 Rocket 4.0 03:54:18 37° SSW 03:56:27 82° ESE 04:01:44 10° NNE
Iridium 4 Rocket 3.3 03:57:33 45° WSW 03:58:25 53° W 04:02:58 10° N
Cosmos 371 Rocket 4.1 03:57:00 32° W 03:58:26 40° WNW 04:03:01 10° NNE
Cosmos 1340 Rocket 3.7 03:58:43 31° WNW 03:58:58 32° WNW 04:02:33 10° N
Cosmos 1937 Rocket 3.4 03:55:43 10° NNW 04:00:58 84° WSW 04:05:51 11° SSE
Cosmos 1428 Rocket 4.4 03:55:34 10° NNW 04:01:47 78° W 04:06:06 21° S
Cosmos 44 Rocket 3.5 03:57:57 10° NW 04:03:05 77° NE 04:08:17 10° SE
Cosmos 858 Rocket 4.4 04:00:59 10° NNW 04:06:11 68° WSW 04:10:06 17° S
Cosmos 1570 Rocket 4.0 04:06:33 34° SW 04:08:51 73° WNW 04:14:12 10° NNE
SAR-Lupe-2 3.6 04:08:43 51° SW 04:09:02 54° WSW 04:12:34 10° NNW
Cosmos 1842 4.2 04:06:52 20° SSE 04:09:17 44° E 04:13:05 10° NNE
Cosmos 1833 Rocket 3.3 04:06:54 28° WSW 04:09:29 46° NW 04:14:55 10° NNE
Okean 1-7 Rocket 3.6 04:08:13 38° SSW 04:09:54 73° W 04:14:27 10° N
SL-16 R/B 3.0 04:08:01 29° SW 04:10:33 42° W 04:16:29 10° NNW
Cosmos 2228 2.9 04:06:31 10° N 04:10:49 87° E 04:13:35 21° S
Cosmos 2058 Rocket 3.0 04:08:54 10° N 04:13:21 86° ENE 04:16:44 17° S
Cosmos 990 Rocket 3.9 04:09:17 10° NNW 04:14:24 66° WSW 04:19:10 12° S
BREEZE-M R/B 4.0 04:14:07 24° SSE 04:15:05 27° SE 04:19:34 10° E
ARIANE 5 R/B 2.5 04:10:33 10° NNE 04:15:50 86° WNW 04:18:54 26° SSW
Cosmos 468 Rocket 4.0 04:14:21 29° SSW 04:17:09 88° WNW 04:22:30 10° NNE
Cosmos 1606 Rocket 3.7 04:13:42 10° NNW 04:17:53 50° W 04:19:25 34° SSW
Spot 4 Rocket 4.0 04:13:48 10° NNE 04:19:00 79° WNW 04:21:59 26° SSW
Cosmos 1805 3.2 04:16:36 10° N 04:20:32 88° E 04:23:18 19° S
ATLAS CENTAUR R/B 2.8 04:17:48 10° NNW 04:21:54 42° NE 04:26:15 10° ESE
USA 267 4.0 04:16:31 10° E 04:22:49 53° NNE 04:29:08 10° WNW
USA 238 DEB 4.2 04:21:56 19° SSW 04:26:51 55° ESE 04:33:38 10° NE
USA 238 4.2 04:22:01 19° SSW 04:26:58 55° ESE 04:33:45 10° NE
Cosmos 1953 3.5 04:23:43 10° N 04:27:40 45° ENE 04:31:34 10° SSE
Cosmos 1814 Rocket 4.1 04:24:21 21° S 04:27:47 72° ESE 04:32:59 10° NNE
SJ 16-02 2.3 04:23:43 10° NNW 04:28:02 50° ENE 04:32:19 10° SE
Cosmos 1766 3.4 04:25:32 10° NNW 04:29:17 50° W 04:30:53 29° SSW
Cosmos 304 Rocket 4.1 04:27:50 28° WSW 04:30:08 51° WNW 04:34:53 10° NNE
Gblst 52 Del rocket 4.3 04:25:19 10° WNW 04:31:05 75° SSW 04:37:36 10° ESE
Cosmos 2150 Rocket 4.1 04:29:02 10° NNW 04:34:27 62° WSW 04:39:49 10° S
Cosmos 1025 Rocket 4.2 04:33:10 22° W 04:34:28 26° WNW 04:38:06 10° NNW
Cosmos 1892 Rocket 3.6 04:33:12 25° SSW 04:35:41 66° WNW 04:40:04 10° N
Cosmos 2298 Rocket 4.3 04:36:55 10° NNW 04:42:02 48° WSW 04:47:06 10° S
IRS-1D 4.2 04:39:21 10° N 04:44:10 41° WNW 04:47:21 20° SW
Gbstr 26 Del rocket 4.4 04:37:09 10° W 04:44:53 74° N 04:51:21 10° E
Lacrosse 5 rocket 2.2 04:41:55 17° W 04:44:55 43° NNW 04:48:46 10° NE
CZ-2D R/B 2.9 04:40:33 10° N 04:45:27 36° WNW 04:48:38 19° WSW
Cosmos 2279 Rocket 4.3 04:45:52 18° SW 04:50:17 49° WNW 04:56:21 10° N
Cosmos 1356 Rocket 4.4 04:49:39 21° WSW 04:51:26 29° WNW 04:55:03 10° N
Cosmos 1733 3.2 04:48:37 10° N 04:52:31 89° W 04:56:24 10° S
Cosmos 724 4.3 04:49:58 19° SW 04:54:16 77° NW 05:00:07 10° NE
Cosmos 841 Rocket 3.5 04:49:57 15° SSW 04:54:19 88° ESE 04:59:35 10° NNE
Cosmos 1758 3.2 04:50:48 10° NNW 04:54:46 70° W 04:58:43 10° S
Cosmos 292 Rocket 3.9 04:51:33 12° SSW 04:55:56 73° ESE 05:00:44 10° NNE
NOSS 3-3 (A) 4.5 04:49:46 10° NW 04:57:10 84° SW 05:05:15 10° SE
NOSS 3-3 (C) 4.5 04:49:53 10° NW 04:57:17 84° SW 05:05:20 10° SE
ADEOS II 2.1 04:55:21 10° NNE 05:00:40 87° ESE 05:05:56 10° SSW
ADEOS 3.7 04:55:32 10° N 05:00:42 63° WNW 05:05:21 13° SSW
Cosmos 2360 Rocket 2.2 04:56:27 10° NNW 05:02:06 87° ENE 05:07:45 10° SSE
Cosmos 1980 Rocket 3.7 05:00:36 10° WNW 05:03:46 15° W 05:05:01 15° WSW
NOSS 3-2 (C) 4.5 04:58:31 10° S 05:04:04 42° ESE 05:10:15 10° NE
Helios 1A Rocket 3.7 05:01:04 10° N 05:04:57 38° WNW 05:07:54 16° SW
Cosmos 540 Rocket 3.8 05:01:09 10° S 05:06:14 68° ESE 05:11:22 10° NNE
Cosmos 44 4.4 05:06:20 10° WNW 05:10:40 27° WSW 05:15:07 10° S
ATLAS 3B R/B 2.8 05:05:14 12° SW 05:11:56 84° SE 05:18:49 10° NE
CZ-2D R/B 4.1 05:08:44 10° N 05:12:33 39° WNW 05:15:55 13° SW
Meteor 1-21 4.5 05:08:49 11° SSW 05:14:01 52° WNW 05:19:31 10° N
Okean O Rocket 3.7 05:12:26 10° NE 05:16:12 28° E 05:19:56 10° SSE
Resurs 1-4 Rocket 3.6 05:13:17 10° N 05:17:08 21° WNW 05:20:55 10° WSW
UNKNOWN OBJECT B 3.7 05:14:33 10° N 05:18:03 32° WNW 05:21:02 13° SW
SL-16 R/B 2.8 05:13:52 10° NW 05:18:53 33° WSW 05:23:52 10° SSW
Cosmos 2333 Rocket 3.9 05:14:05 10° NNW 05:19:23 39° NE 05:24:40 10° ESE
Cosmos 1763 Rocket 4.0 05:15:14 13° SW 05:19:46 46° WNW 05:24:55 10° NNE
NOSS 3-2 (A) 3.8 05:14:06 10° SSW 05:20:02 69° SE 05:26:42 10° NE
Cosmos 2082 Rocket 3.9 05:16:51 10° W 05:21:00 21° NW 05:25:11 10° N
Cosmos 1470 2.9 05:20:09 10° NNW 05:24:03 52° W 05:27:54 10° S
COSMOS 2428 3.4 05:19:09 10° NNW 05:24:49 61° ENE 05:30:26 10° SE
BREEZE-M DEB (TANK) 3.8 05:26:14 10° SSW 05:27:52 18° SE 05:29:48 10° E
Timation 2 Rocket 4.1 05:22:32 11° SW 05:28:17 56° NW 05:34:12 10° NNE
USA 215 3.9 05:22:01 10° ENE 05:28:22 52° SE 05:34:43 10° SSW
Cosmos 2219 Rocket 3.4 05:23:02 10° NNW 05:28:30 48° NE 05:33:53 10° SE
Cosmos 2266 Rocket 4.5 05:24:08 10° NNW 05:29:42 38° W 05:35:17 10° SSW
CZ-4B R/B 3.4 05:26:43 10° NNE 05:30:59 63° ESE 05:34:58 10° S
Cosmos 1244 Rocket 4.5 05:25:14 10° NNW 05:31:24 79° W 05:37:33 10° S
CENTAUR R/B 4.1 05:26:32 10° S 05:31:45 31° ESE 05:37:37 10° NE
Cosmos 2237 Rocket 4.4 05:27:13 10° NNW 05:32:14 31° NE 05:37:15 10° ESE
PSLV R/B 3.5 05:28:19 10° NNE 05:32:34 88° ESE 05:36:46 10° SSW
Cosmos 2322 Rocket 3.1 05:28:50 10° NW 05:33:29 27° WSW 05:38:06 10° SSW
Cosmos 1378 3.2 05:31:13 10° SSW 05:34:55 58° WNW 05:38:39 10° N
DNEPR-1 R/B 3.6 05:32:21 10° SW 05:36:36 89° SE 05:41:28 10° NE
Aureole 2 Rocket 3.1 05:33:08 10° NW 05:36:43 38° WSW 05:40:05 10° S
Meteor 1-16 Rocket 4.2 05:32:14 10° NNW 05:37:57 86° W 05:43:28 10° S
Cosmos 1707 2.8 05:39:00 10° SSW 05:42:51 65° WNW 05:46:45 10° N
Cosmos 1745 Rocket 4.4 05:37:20 10° N 05:43:33 73° E 05:49:47 10° SSE
USA 161 1.8 05:40:56 10° SSE 05:43:56 74° ENE 05:46:48 10° N
Cosmos 1812 Rocket 4.2 05:40:43 10° NNW 05:44:50 37° W 05:48:56 10° SSW
Cosmos 1953 Rocket 4.3 05:40:35 10° S 05:44:57 58° E 05:49:20 10° NNE
Cosmos 1125 Rocket 3.9 05:42:05 10° NW 05:47:04 42° WSW 05:52:01 10° S
